Flag for U.S.A. Weather past 2 weeks in New Orleans, Louisiana, U.S.A.

Now
86 °F

Thundershowers. Partly sunny.


Feels Like: 93 °F
Forecast: 76 / 85 °F
Wind: 7 mph from Southeast

Location: Lakefront Airport

Current Time: Sep 16, 2014 at 3:14:42 PM

Latest Report: Sep 16, 2014 at 2:53 PM


Visibility: 10 mi

Pressure: 29.98 "Hg

Humidity: 65%

Dew point: 73 °F

Location of New OrleansLocation

Historic Weather in New Orleans — Graph

°F

New Orleans temperature yesterday

Maximum temperature yesterday: 89 °F (at 1:53 PM)
Minimum temperature yesterday: 81 °F (at 5:53 AM)
Average temperature yesterday: 83 °F

Past Weeks' High & Low Weather Summary

 TemperatureHumidityPressure
High91 °F (Sep 9, 2:53 PM)94% (Sep 2, 3:53 AM)30.12 "Hg (Sep 2, 3:53 AM)
Low73 °F (Sep 14, 7:53 AM)50% (Sep 6, 4:53 PM)29.89 "Hg (Sep 7, 4:53 PM)
Average83 °F77%30.00 "Hg
* Reported Sep 1 1:59 PM — Sep 16 1:53 PM, New Orleans, Weather by CustomWeather, © 2014

Note: Actual official high and low records may vary slightly from our data, if they occured in-between our weather recording intervals... More about our weather records

Advertising

New Orleans weather history for previous 24 hours

 ConditionsComfort  
Time TempWeatherWind HumidityBarometerVisibility
1:53 PM
Sep 16
86 °FSunny.8 mph65%29.99 "Hg10 mi
12:53 PM83 °FBroken clouds.10 mph68%30.03 "Hg10 mi
11:53 AM85 °FPassing clouds.3 mph72%30.04 "Hg10 mi
10:53 AM86 °FSunny.3 mph72%30.06 "Hg10 mi
9:53 AM84 °FPassing clouds.5 mph77%30.06 "Hg10 mi
8:55 AM83 °FPartly sunny.6 mph77%30.08 "Hg10 mi
7:53 AM83 °FScattered clouds.3 mph82%30.06 "Hg10 mi
6:53 AM81 °FPassing clouds.7 mph82%30.04 "Hg10 mi
5:53 AM81 °FClear.7 mph85%30.03 "Hg10 mi
4:53 AM81 °FClear.3 mph85%30.03 "Hg10 mi
3:53 AM81 °FPassing clouds.6 mph85%30.03 "Hg10 mi
2:53 AM82 °FClear.6 mph82%30.05 "Hg10 mi
1:53 AM82 °FClear.9 mph82%30.05 "Hg10 mi
12:53 AM81 °FClear.5 mph85%30.06 "Hg10 mi
11:53 PM
Sep 15
81 °FClear.6 mph85%30.07 "Hg10 mi
10:53 PM82 °FClear.No wind82%30.07 "Hg10 mi
9:53 PM81 °FClear.3 mph82%30.06 "Hg10 mi
8:53 PM82 °FClear.No wind77%30.07 "Hg10 mi
7:53 PM81 °FSunny.5 mph79%30.04 "Hg10 mi
6:53 PM81 °FSunny.5 mph79%30.03 "Hg10 mi
5:53 PM82 °FSunny.7 mph79%30.04 "Hg10 mi
5:03 PM82 °FScattered clouds.9 mph79%30.05 "Hg10 mi
4:53 PM82 °FCloudy.9 mph79%30.03 "Hg10 mi
3:53 PM86 °FScattered clouds.9 mph65%30.03 "Hg10 mi
Weather by CustomWeather, © 2014

See weather overviewHow to use our weather pages